Location: Bottom School (historical)
(37.9078°N, 89.3593°W)
Time: 20:18:33
(UTC+00:00)

SL-4 R/B - Pass Details

Date: 06 July 2022
Orbit: 425 x 653 km, 51.6° (Epoch: 16 August)

Event Time Altitude Azimuth Distance (km) Brightness Sun altitude
Rises 09:35:57 0° 317° (NW) 2,559 5.4 -11.4°
Reaches altitude 10° 09:38:41 10° 339° (NNW) 1,723 4.8 -11.0°
Maximum altitude 09:41:18 17° 21° (NNE) 1,387 5.0 -10.6°
Drops below altitude 10° 09:44:01 10° 62° (ENE) 1,816 6.2 -10.1°
Sets 09:47:01 0° 83° (E) 2,763 6.7 -9.7°
